FRS123 EDMH-ETHL

Flight info

Callsign FRS123
Flight time N/A
Altitude 3500
Route DCT
Aircraft PA24/L-SDGRY/S

Departure

Time 2026-04-30 15:01
Airport Gunzenhausen-Reutberg Airfield (EDMH)

Arrival

Time N/A
Airport Laupheim Air Base (ETHL)
Time Latitude Longitude Altitude Speed Heading
2026-04-30 14:55 49.11227 10.78183 1587 ft 0 kts 186°
2026-04-30 15:00 49.11215 10.78173 1586 ft 4 kts 230°
2026-04-30 15:00 49.10778 10.77054 1842 ft 76 kts 243°
2026-04-30 15:01 49.09815 10.76132 2211 ft 90 kts 188°
2026-04-30 15:01 49.09396 10.75990 2247 ft 95 kts 203°
2026-04-30 15:01 49.09229 10.74055 2632 ft 79 kts 289°
2026-04-30 15:02 49.09294 10.73129 2613 ft 96 kts 258°
2026-04-30 15:02 49.09038 10.72291 2788 ft 89 kts 231°
2026-04-30 15:03 49.07261 10.71690 3164 ft 91 kts 164°
2026-04-30 15:03 49.06013 10.71436 3344 ft 99 kts 200°
2026-04-30 15:04 49.04561 10.70709 3320 ft 125 kts 199°
2026-04-30 15:04 49.02642 10.67740 3310 ft 148 kts 242°
2026-04-30 15:05 49.00757 10.64129 3342 ft 150 kts 214°
2026-04-30 15:06 48.99023 10.62338 3333 ft 151 kts 214°
2026-04-30 15:06 48.97284 10.60570 3330 ft 151 kts 214°
2026-04-30 15:07 48.95532 10.58785 3330 ft 153 kts 214°
2026-04-30 15:07 48.93753 10.56973 3332 ft 154 kts 213°
2026-04-30 15:08 48.91972 10.55178 3333 ft 153 kts 214°
2026-04-30 15:08 48.89332 10.52551 3321 ft 154 kts 214°
2026-04-30 15:09 48.87556 10.50748 3333 ft 154 kts 215°
2026-04-30 15:09 48.86271 10.48186 3333 ft 153 kts 237°
2026-04-30 15:10 48.85079 10.45499 3333 ft 154 kts 237°
2026-04-30 15:11 48.82805 10.40026 3332 ft 155 kts 238°
2026-04-30 15:11 48.81681 10.37281 3328 ft 152 kts 239°
2026-04-30 15:12 48.80026 10.32953 3527 ft 167 kts 238°
2026-04-30 15:13 48.78918 10.29878 3585 ft 167 kts 239°
2026-04-30 15:14 48.75988 10.24965 3697 ft 158 kts 188°
2026-04-30 15:14 48.72811 10.23601 3681 ft 158 kts 186°
2026-04-30 15:16 48.67473 10.22096 3555 ft 157 kts 161°
2026-04-30 15:17 48.63221 10.20246 3426 ft 166 kts 194°
2026-04-30 15:18 48.58578 10.15171 3542 ft 165 kts 220°
2026-04-30 15:19 48.56149 10.11401 3694 ft 167 kts 218°